Location: Dąbrówka
(52.2799°N, 15.8070°E)
Time: 21:30:17
(UTC+01:00)

ISS - Pass Details

Date: 30 January 2019
Orbit: 403 x 411 km, 51.6° (Epoch: 21 February)

Event Time Altitude Azimuth Distance (km) Brightness Sun altitude
Rises 17:25:14 0° 244° (WSW) 2,329 2.5 -7.2°
Reaches altitude 10° 17:27:20 10° 240° (WSW) 1,472 0.6 -7.5°
Maximum altitude 17:30:34 54° 162° (SSE) 505 -3.4 -8.0°
Enters shadow 17:33:38 11° 85° (E) 1,410 -1.7 -8.5°
